• In India
  • List of Countries
  • For 7 days
  • Water Temperature
  • Satellite Maps
  • Weather Map
  • Weather Widgets
  • user-avatar
    Login

    Hourly Weather Shaki

    Today, 23 June, Saturday

    Time Temperature Precipitation Wind Pressure Humidity
    00:00 +24°C° 0 mm 3 mps 732 mmHg 49%
    01:00 +24°C° 0 mm 2 mps 732 mmHg 50%
    02:00 +24°C° 0 mm 2 mps 732 mmHg 51%
    03:00 +23°C° 0 mm 2 mps 732 mmHg 52%
    04:00 +24°C° 0 mm 1 mps 732 mmHg 50%
    05:00 +25°C° 0 mm 1 mps 732 mmHg 49%
    06:00 +26°C° 0 mm 1 mps 732 mmHg 47%
    07:00 +27°C° 0 mm 1 mps 732 mmHg 43%
    08:00 +29°C° 0 mm 1 mps 732 mmHg 39%
    09:00 +30°C° 0 mm 1 mps 732 mmHg 35%
    10:00 +31°C° 0 mm 2 mps 732 mmHg 34%
    11:00 +31°C° 0 mm 2 mps 731 mmHg 33%
    12:00 +32°C° 0 mm 2 mps 731 mmHg 32%
    13:00 +32°C° 0.1 mm 2 mps 731 mmHg 31%
    14:00 +34°C° 0.1 mm 2 mps 731 mmHg 30%
    15:00 +35°C° 0.1 mm 3 mps 730 mmHg 30%
    16:00 +34°C° 0 mm 2 mps 730 mmHg 31%
    17:00 +34°C° 0 mm 2 mps 730 mmHg 32%
    18:00 +32°C° 0 mm 2 mps 731 mmHg 33%
    19:00 +30°C° 0 mm 2 mps 731 mmHg 35%
    20:00 +29°C° 0 mm 2 mps 731 mmHg 37%
    21:00 +27°C° 0 mm 2 mps 731 mmHg 40%
    22:00 +26°C° 0 mm 2 mps 731 mmHg 39%
    23:00 +26°C° 0 mm 2 mps 732 mmHg 39%

    Tomorrow, 24 June, Sunday

    Time Temperature Precipitation Wind Pressure Humidity
    00:00 +25°C° 0 mm 2 mps 732 mmHg 39%
    01:00 +25°C° 0 mm 2 mps 732 mmHg 39%
    02:00 +24°C° 0 mm 2 mps 732 mmHg 40%
    03:00 +24°C° 0 mm 2 mps 732 mmHg 40%
    04:00 +25°C° 0 mm 2 mps 732 mmHg 41%
    05:00 +26°C° 0 mm 2 mps 732 mmHg 41%
    06:00 +27°C° 0 mm 2 mps 732 mmHg 41%
    07:00 +28°C° 0 mm 2 mps 732 mmHg 37%
    08:00 +30°C° 0 mm 2 mps 733 mmHg 34%
    09:00 +33°C° 0 mm 3 mps 733 mmHg 30%
    10:00 +34°C° 0 mm 2 mps 732 mmHg 29%
    11:00 +34°C° 0 mm 2 mps 732 mmHg 28%
    12:00 +35°C° 0 mm 2 mps 732 mmHg 26%
    13:00 +36°C° 0 mm 2 mps 732 mmHg 26%
    14:00 +36°C° 0 mm 2 mps 732 mmHg 26%
    15:00 +37°C° 0 mm 2 mps 732 mmHg 26%
    16:00 +36°C° 0 mm 2 mps 732 mmHg 27%
    17:00 +36°C° 0 mm 3 mps 732 mmHg 28%
    18:00 +35°C° 0 mm 3 mps 732 mmHg 29%
    19:00 +33°C° 0 mm 3 mps 732 mmHg 31%
    20:00 +30°C° 0 mm 3 mps 733 mmHg 33%
    21:00 +28°C° 0 mm 3 mps 733 mmHg 34%
    22:00 +28°C° 0 mm 2 mps 734 mmHg 34%
    23:00 +27°C° 0 mm 2 mps 734 mmHg 34%

    Day after tomorrow, 25 June, Monday

    Time Temperature Precipitation Wind Pressure Humidity
    00:00 +27°C° 0 mm 2 mps 734 mmHg 33%
    01:00 +26°C° 0 mm 2 mps 734 mmHg 34%
    02:00 +26°C° 0 mm 2 mps 734 mmHg 34%
    03:00 +26°C° 0 mm 2 mps 734 mmHg 34%
    04:00 +26°C° 0 mm 2 mps 734 mmHg 35%
    05:00 +27°C° 0 mm 1 mps 734 mmHg 35%
    06:00 +28°C° 0 mm 1 mps 734 mmHg 35%
    07:00 +30°C° 0 mm 1 mps 734 mmHg 32%
    08:00 +31°C° 0 mm 2 mps 734 mmHg 29%
    09:00 +34°C° 0 mm 2 mps 734 mmHg 25%
    10:00 +35°C° 0 mm 2 mps 734 mmHg 24%
    11:00 +36°C° 0 mm 2 mps 734 mmHg 23%
    12:00 +37°C° 0 mm 3 mps 734 mmHg 22%
    13:00 +37°C° 0 mm 3 mps 734 mmHg 21%
    14:00 +38°C° 0 mm 3 mps 733 mmHg 21%
    15:00 +38°C° 0 mm 4 mps 733 mmHg 21%
    16:00 +38°C° 0 mm 4 mps 733 mmHg 23%
    17:00 +37°C° 0 mm 4 mps 733 mmHg 25%
    18:00 +36°C° 0 mm 4 mps 733 mmHg 27%
    19:00 +34°C° 0 mm 3 mps 734 mmHg 28%
    20:00 +31°C° 0 mm 3 mps 734 mmHg 29%
    21:00 +29°C° 0 mm 3 mps 734 mmHg 30%
    22:00 +28°C° 0 mm 3 mps 734 mmHg 30%
    23:00 +28°C° 0 mm 2 mps 734 mmHg 30%

    26 June, Tuesday

    Time Temperature Precipitation Wind Pressure Humidity
    00:00 +27°C° 0 mm 2 mps 734 mmHg 30%
    01:00 +27°C° 0 mm 2 mps 734 mmHg 30%
    02:00 +27°C° 0 mm 2 mps 734 mmHg 31%
    03:00 +26°C° 0 mm 2 mps 734 mmHg 31%
    04:00 +27°C° 0 mm 2 mps 734 mmHg 31%
    05:00 +28°C° 0 mm 2 mps 734 mmHg 32%
    06:00 +29°C° 0 mm 2 mps 734 mmHg 32%
    07:00 +30°C° 0 mm 2 mps 734 mmHg 29%
    08:00 +32°C° 0 mm 2 mps 734 mmHg 25%
    09:00 +35°C° 0 mm 2 mps 734 mmHg 22%
    10:00 +36°C° 0 mm 2 mps 733 mmHg 21%
    11:00 +37°C° 0 mm 2 mps 733 mmHg 21%
    12:00 +38°C° 0 mm 3 mps 733 mmHg 20%
    13:00 +38°C° 0 mm 3 mps 733 mmHg 20%
    14:00 +39°C° 0 mm 3 mps 732 mmHg 20%
    15:00 +40°C° 0 mm 4 mps 732 mmHg 20%
    16:00 +40°C° 0 mm 4 mps 732 mmHg 22%
    17:00 +38°C° 0 mm 4 mps 732 mmHg 24%
    18:00 +37°C° 0 mm 4 mps 732 mmHg 25%
    19:00 +35°C° 0 mm 3 mps 732 mmHg 26%
    20:00 +33°C° 0 mm 3 mps 733 mmHg 27%
    21:00 +30°C° 0 mm 3 mps 733 mmHg 27%
    22:00 +29°C° 0 mm 3 mps 733 mmHg 27%
    23:00 +29°C° 0 mm 2 mps 733 mmHg 27%

    27 June, Wednesday

    Time Temperature Precipitation Wind Pressure Humidity
    00:00 +28°C° 0 mm 2 mps 733 mmHg 27%
    01:00 +28°C° 0 mm 2 mps 732 mmHg 28%
    02:00 +27°C° 0 mm 2 mps 732 mmHg 28%
    03:00 +27°C° 0 mm 2 mps 732 mmHg 29%
    04:00 +28°C° 0 mm 2 mps 732 mmHg 29%
    05:00 +28°C° 0 mm 2 mps 732 mmHg 30%
    06:00 +29°C° 0 mm 1 mps 733 mmHg 30%
    07:00 +31°C° 0 mm 1 mps 732 mmHg 27%
    08:00 +33°C° 0 mm 1 mps 732 mmHg 23%
    09:00 +35°C° 0 mm 1 mps 732 mmHg 20%
    10:00 +37°C° 0 mm 2 mps 732 mmHg 19%
    11:00 +38°C° 0 mm 2 mps 731 mmHg 18%
    12:00 +39°C° 0 mm 2 mps 731 mmHg 18%
    13:00 +39°C° 0 mm 2 mps 731 mmHg 17%
    14:00 +40°C° 0 mm 2 mps 731 mmHg 17%
    15:00 +40°C° 0 mm 2 mps 730 mmHg 17%
    16:00 +39°C° 0 mm 2 mps 730 mmHg 18%
    17:00 +39°C° 0 mm 2 mps 730 mmHg 20%
    18:00 +38°C° 0 mm 2 mps 730 mmHg 22%
    19:00 +36°C° 0 mm 3 mps 731 mmHg 24%
    20:00 +34°C° 0 mm 3 mps 731 mmHg 26%
    21:00 +31°C° 0 mm 3 mps 731 mmHg 28%
    22:00 +30°C° 0 mm 3 mps 731 mmHg 28%
    23:00 +29°C° 0 mm 2 mps 731 mmHg 29%

    28 June, Thursday

    Time Temperature Precipitation Wind Pressure Humidity
    00:00 +29°C° 0 mm 2 mps 731 mmHg 30%
    01:00 +28°C° 0 mm 2 mps 731 mmHg 30%
    02:00 +28°C° 0 mm 2 mps 731 mmHg 30%
    03:00 +28°C° 0 mm 2 mps 731 mmHg 30%
    04:00 +28°C° 0 mm 2 mps 731 mmHg 30%
    05:00 +29°C° 0 mm 2 mps 731 mmHg 30%
    06:00 +30°C° 0 mm 2 mps 731 mmHg 30%
    07:00 +32°C° 0 mm 2 mps 731 mmHg 27%
    08:00 +35°C° 0 mm 2 mps 731 mmHg 24%
    09:00 +37°C° 0 mm 2 mps 731 mmHg 20%
    10:00 +38°C° 0 mm 2 mps 731 mmHg 20%
    11:00 +39°C° 0 mm 2 mps 730 mmHg 19%
    12:00 +40°C° 0 mm 2 mps 730 mmHg 18%
    13:00 +40°C° 0 mm 2 mps 730 mmHg 18%
    14:00 +41°C° 0 mm 2 mps 730 mmHg 17%
    15:00 +42°C° 0 mm 3 mps 730 mmHg 17%
    16:00 +42°C° 0 mm 3 mps 730 mmHg 19%
    17:00 +40°C° 0 mm 3 mps 730 mmHg 21%
    18:00 +40°C° 0 mm 4 mps 730 mmHg 23%
    19:00 +37°C° 0 mm 3 mps 730 mmHg 25%
    20:00 +35°C° 0 mm 3 mps 731 mmHg 28%
    21:00 +31°C° 0 mm 3 mps 731 mmHg 30%
    22:00 +31°C° 0 mm 3 mps 731 mmHg 31%
    23:00 +30°C° 0 mm 2 mps 731 mmHg 32%
    Show more